Theta_e
310 310 310 310 310 310 310 311 311 311 311 311 312 312 312 312 313 313 313 314 313 312 311 314 315 316 316 320 319 319 320 320 321 321 320 319 319 319 318 318 318 318 318 318 318
310 310 310 310 310 311 311 311 311 311 311 312 312 312 312 313 313 314 316 314 313 312 311 314 317 317 318 319 320 320 321 321 319 318 317 318 317 317 317 317 317 317 318 318 318
310 310 311 311 311 311 311 311 311 311 311 311 311 311 311 311 313 317 313 312 312 312 313 315 317 317 318 318 320 320 320 319 318 318 318 317 317 316 316 315 317 318 318 317 318
311 312 312 312 311 311 311 311 311 311 311 312 312 312 313 312 316 314 313 314 313 312 313 314 315 317 317 318 319 318 319 319 318 318 318 317 317 317 316 317 317 317 317 317 317
312 312 312 311 310 310 310 311 311 312 313 314 315 315 315 315 314 314 314 313 313 313 313 315 315 316 317 317 317 316 318 318 318 317 317 317 317 316 316 316 316 316 317 317 316
309 309 309 309 310 311 312 313 315 316 317 317 316 316 314 315 316 315 313 312 313 313 313 315 315 316 316 316 316 316 316 316 315 315 316 316 315 316 316 316 316 317 316 316 316
311 311 312 313 314 315 316 316 316 317 317 316 316 317 313 316 317 317 316 313 312 313 314 315 315 315 315 316 315 315 314 314 315 316 315 316 314 315 316 315 316 316 316 317 317
316 315 315 315 316 316 317 317 317 318 318 319 319 317 314 315 314 313 314 314 312 312 312 315 314 314 314 315 315 314 314 314 316 316 314 314 314 314 316 316 316 316 316 315 316
314 315 315 316 318 318 319 319 320 320 320 320 317 314 315 313 312 312 312 312 312 311 311 312 313 314 315 314 314 313 313 315 316 317 314 313 314 315 316 316 316 316 316 316 316
314 314 316 318 320 321 322 322 322 321 320 318 314 313 314 313 312 312 313 312 312 312 312 312 313 314 313 312 313 316 314 316 316 316 315 315 314 314 316 316 315 316 316 316 314
316 317 318 320 321 322 323 323 321 321 319 319 319 315 318 317 316 315 313 312 312 313 314 313 313 313 314 314 314 314 314 315 315 316 316 316 314 314 316 315 314 315 316 314 312
318 319 320 321 322 323 323 321 321 321 320 321 320 321 321 320 316 314 313 312 313 314 314 313 314 315 315 315 315 315 314 315 316 317 314 313 313 313 313 314 315 316 314 312 310
319 319 321 321 323 324 323 322 322 321 318 321 320 318 317 317 318 318 314 312 314 315 316 315 317 317 316 316 316 315 316 316 315 313 312 312 313 314 315 316 313 313 310 308 308
319 320 321 322 321 323 322 322 320 317 320 321 315 313 311 313 314 312 313 313 314 316 316 316 315 314 314 314 315 315 313 313 313 312 314 313 314 314 315 311 311 310 308 307 306
321 321 321 321 323 323 322 322 319 317 325 317 311 310 309 311 311 310 310 311 314 314 313 316 312 312 313 313 313 313 312 312 311 312 313 314 314 315 315 311 310 309 307 305 304
321 322 322 322 323 323 323 320 318 321 326 315 311 312 310 310 310 309 310 310 310 312 312 312 311 311 313 313 312 310 311 311 311 312 316 316 316 317 314 311 310 308 307 305 303
323 322 321 321 322 322 322 319 322 325 321 318 313 312 313 311 311 312 311 310 313 314 315 315 313 311 312 313 311 310 312 317 318 317 318 316 316 318 316 311 309 307 305 304 303
318 317 317 320 321 318 320 319 322 322 322 316 314 313 314 314 314 312 314 315 313 315 317 318 317 313 311 314 316 312 314 316 318 317 315 313 315 318 312 309 308 306 305 303 302
317 317 314 316 319 318 319 315 320 321 319 321 319 319 318 319 318 318 317 318 318 315 318 317 315 312 311 313 313 314 314 313 314 307 311 314 315 315 310 309 308 306 303 301 300
317 317 316 317 319 318 317 318 318 319 319 319 321 320 321 321 318 318 318 315 314 311 311 315 316 314 311 312 310 312 310 314 312 313 310 313 314 314 312 310 307 304 302 300 299
315 313 312 314 315 315 316 316 316 316 317 319 320 321 320 319 319 318 317 314 313 310 312 313 314 314 312 312 314 309 309 309 311 315 316 314 312 310 310 309 306 303 301 299 297
310 309 308 310 312 313 314 312 312 312 313 316 316 316 317 316 313 313 312 312 313 313 315 314 314 313 313 312 310 310 314 315 315 313 312 314 313 310 306 304 302 302 300 299 297
306 308 306 312 313 313 312 312 312 312 312 312 314 315 313 312 312 312 311 310 311 312 313 312 311 306 304 308 309 311 310 311 312 311 314 314 312 310 303 302 304 303 301 298 296
305 306 306 309 310 310 311 311 310 310 310 310 311 311 311 312 311 310 309 308 306 306 308 309 310 308 305 305 308 308 308 308 308 308 305 306 306 305 305 304 302 297 296 294 292
304 303 306 306 308 309 309 309 310 310 309 309 310 309 309 308 308 309 309 307 305 303 304 307 305 307 307 306 304 302 303 303 303 302 302 302 302 302 302 302 297 297 294 293 292
301 301 302 304 306 308 308 307 308 307 307 307 308 307 307 307 307 303 302 304 305 301 303 302 297 300 294 301 301 301 300 300 300 300 301 301 301 301 299 297 295 292 292 291 291
299 298 301 303 304 306 306 307 305 305 302 302 304 304 303 302 301 301 300 300 300 300 299 299 296 292 292 298 296 293 296 298 298 298 299 298 298 296 296 293 292 291 291 291 291
Wind_Speed
4 4 4 5 5 5 6 7 7 7 8 9 10 11 12 13 15 17 17 11 11 9 8 6 5 3 1 3 4 3 3 5 7 4 3 9 3 2 5 10 15 11 14 16 17
6 6 6 6 7 8 8 8 8 9 10 11 11 12 13 15 17 18 12 11 8 4 5 3 1 4 4 3 3 3 3 5 7 8 7 16 13 15 8 13 25 17 20 24 20
8 8 8 9 9 9 10 10 10 10 11 11 13 13 13 15 16 2 3 4 5 5 4 4 7 7 10 10 7 6 4 7 14 19 10 11 16 17 15 8 28 19 21 17 15
11 10 10 10 11 11 12 12 12 12 12 12 13 13 13 11 5 3 3 4 3 3 4 5 5 6 6 6 13 9 15 16 18 13 6 6 16 18 21 24 30 26 26 25 24
14 13 13 12 12 13 13 14 14 13 14 13 13 13 12 6 10 15 14 14 12 9 8 6 9 11 7 8 13 7 12 18 18 15 15 16 21 16 25 31 29 28 24 21 20
15 14 13 13 12 13 13 13 13 13 13 13 13 13 10 9 12 14 13 9 8 8 7 9 5 6 10 9 7 14 14 17 22 28 26 13 18 12 19 20 21 20 20 20 20
14 13 13 13 12 13 13 13 13 13 13 13 12 12 12 16 14 13 14 11 10 9 9 7 11 8 7 6 7 7 7 10 20 16 7 10 8 8 20 12 8 16 22 22 24
15 14 13 12 12 12 13 13 13 12 12 12 11 10 8 12 14 11 12 13 11 10 11 15 13 9 7 7 6 5 6 4 4 4 4 8 5 13 8 18 25 35 35 28 26
16 14 12 11 10 11 11 11 12 12 12 11 9 7 7 6 6 5 6 5 4 8 10 9 6 6 5 3 5 8 5 8 8 6 6 6 5 9 19 26 26 36 27 23 24
14 13 12 11 10 9 9 10 11 12 11 8 7 5 9 4 4 2 1 4 2 4 2 5 5 3 4 4 4 6 9 11 11 7 12 10 9 9 17 28 28 30 27 26 13
14 13 12 12 10 8 8 6 6 4 5 8 5 8 5 9 9 9 6 7 6 5 5 9 4 6 10 11 11 5 9 11 12 11 10 9 11 10 23 29 22 24 7 23 30
14 14 13 13 10 8 6 2 5 5 9 16 21 23 23 21 6 8 7 8 7 6 11 2 6 12 7 8 8 9 10 12 9 7 9 8 13 20 17 20 23 6 15 27 28
15 15 14 13 9 9 6 7 6 7 6 9 15 8 7 10 6 7 10 6 5 6 6 9 8 9 4 7 9 10 10 11 9 8 8 7 8 6 9 3 25 29 33 29 25
18 15 14 12 9 7 7 6 5 6 4 6 5 4 3 5 3 5 12 5 3 6 9 7 4 3 5 8 7 8 1 3 5 4 3 7 5 6 11 8 15 26 28 25 20
19 16 15 12 6 5 6 7 3 2 5 4 5 5 6 3 5 1 7 4 4 6 2 2 6 4 5 6 5 5 2 4 6 4 5 8 4 5 7 9 12 18 23 20 17
21 18 16 18 16 14 10 8 2 2 8 3 5 6 5 5 3 5 4 3 1 2 6 8 3 3 4 3 3 5 3 7 8 5 2 8 6 5 4 12 8 15 18 17 16
24 15 10 10 11 16 15 9 3 6 2 5 4 5 6 5 6 5 4 4 5 4 6 3 9 4 5 1 3 2 2 3 2 2 5 7 5 5 5 10 14 17 20 16 15
13 7 7 11 9 5 10 3 8 6 9 3 3 5 5 6 6 8 3 5 11 6 2 3 4 11 5 5 1 6 4 3 4 1 5 9 5 4 10 21 26 24 20 17 14
14 13 12 14 14 13 10 1 2 4 5 2 2 5 6 5 2 7 9 9 4 7 5 2 3 4 4 3 4 1 3 1 2 1 1 5 6 5 12 13 18 19 17 14 11
17 15 18 18 16 14 1 5 6 9 3 3 6 3 8 11 7 6 5 1 4 4 2 2 4 5 2 3 4 1 2 0 1 3 4 5 4 1 8 10 10 10 11 8 5
15 7 7 15 13 5 4 6 3 6 5 6 7 5 6 10 11 6 4 3 5 5 6 4 1 3 6 3 4 1 1 2 2 3 3 4 5 6 8 7 9 8 5 2 2
9 2 10 19 5 5 6 5 3 1 2 6 2 6 13 12 6 6 4 6 8 4 5 3 2 5 7 8 8 4 6 5 4 4 5 8 14 7 10 12 13 4 3 7 7
7 5 11 25 6 9 5 5 9 10 10 6 7 10 5 9 5 6 5 9 9 4 2 4 2 2 8 1 6 4 3 2 4 0 14 13 13 4 13 12 5 4 9 7 6
7 3 6 21 15 6 11 11 9 9 10 12 3 4 2 4 4 2 1 2 5 5 5 2 3 5 8 9 7 4 7 6 3 3 5 13 17 23 24 12 4 5 1 1 4
8 5 9 6 11 10 6 6 16 9 7 8 4 9 7 5 8 11 8 6 7 5 4 2 3 5 11 9 3 5 13 17 13 16 11 24 21 23 16 14 6 1 2 2 6
5 4 5 4 15 15 14 10 12 6 8 6 9 6 7 5 4 2 4 2 2 2 4 1 3 2 5 4 9 15 21 17 19 19 19 20 23 15 10 4 5 10 9 9 12
12 7 2 4 3 9 14 16 7 7 3 3 0 6 2 2 11 8 4 3 3 4 5 5 3 2 6 3 4 8 15 18 15 17 14 16 12 3 2 4 4 7 9 14 16
Wind_Direction
284 290 300 306 308 310 314 316 317 317 317 317 316 317 319 317 316 311 307 287 289 283 254 254 251 284 269 250 262 290 290 268 282 305 255 130 180 273 256 275 279 259 263 277 281
283 288 291 294 301 305 306 307 309 311 312 312 311 314 318 319 319 310 300 300 275 246 218 233 260 243 245 234 204 231 247 266 311 341 332 326 324 315 293 291 286 286 279 253 255
281 285 289 294 298 299 300 300 302 304 306 307 309 311 316 323 326 300 343 51 109 125 151 219 245 244 248 254 219 208 232 289 313 330 351 324 303 289 279 270 269 277 296 317 267
279 283 286 291 293 295 294 296 299 302 304 305 306 308 311 318 302 321 314 288 250 250 265 240 227 216 236 250 234 246 259 273 288 290 309 290 301 301 285 273 272 283 286 290 286
278 280 284 287 289 290 292 297 301 303 305 306 304 303 305 293 254 270 281 281 271 261 253 221 240 239 247 261 317 285 259 275 300 310 286 281 276 282 285 276 276 284 283 282 280
277 281 283 286 290 291 294 297 301 302 303 302 300 298 288 247 264 269 276 272 257 241 239 211 227 291 307 286 265 296 330 304 287 275 269 259 279 301 275 279 279 288 293 290 285
272 276 280 284 286 288 292 297 302 304 303 299 295 289 266 267 263 266 272 269 251 232 230 243 245 247 309 312 331 321 301 284 271 273 229 185 291 230 282 7 317 297 292 296 305
264 265 268 274 280 286 292 297 300 302 300 295 289 278 255 265 260 259 264 266 254 241 236 225 233 248 256 280 313 266 265 289 249 186 128 129 252 288 331 329 314 292 286 298 301
260 261 262 265 270 279 288 296 299 299 294 287 280 248 261 265 257 258 242 226 263 231 231 244 227 225 235 216 273 225 249 250 286 241 138 164 240 277 285 289 279 281 297 304 304
257 260 261 263 268 278 292 301 300 291 277 271 247 254 243 222 245 238 216 203 175 174 139 176 204 224 220 216 236 281 301 306 306 319 321 297 251 252 312 296 279 294 301 294 83
255 254 256 262 268 281 297 323 325 290 247 217 281 261 274 256 272 271 234 185 148 192 210 191 209 209 228 235 253 343 311 301 305 302 289 300 314 305 278 271 291 290 342 81 83
250 253 254 261 264 274 304 338 273 284 298 265 263 256 257 259 257 251 188 175 183 214 217 132 227 237 336 341 325 310 287 282 275 304 337 311 294 276 274 270 267 238 90 93 76
247 251 256 263 268 273 263 249 282 292 260 265 233 229 218 248 236 214 187 191 196 229 239 228 264 330 314 284 281 270 276 294 308 339 276 300 275 258 282 310 77 88 83 81 83
246 249 257 266 286 250 248 239 237 316 271 199 193 181 180 169 206 215 194 194 184 235 226 245 235 231 265 259 248 278 80 3 308 340 274 33 278 296 281 100 85 79 73 72 73
243 247 249 252 235 210 209 211 219 324 286 95 144 159 160 175 143 132 180 179 235 188 197 225 164 191 218 236 165 238 171 232 248 251 308 240 248 249 119 113 102 85 82 81 74
242 243 245 244 236 223 212 192 156 171 241 152 135 170 163 176 160 133 156 165 253 338 216 257 343 239 235 240 230 49 308 270 253 222 260 247 197 291 88 143 113 102 97 88 80
240 222 208 234 229 225 219 179 165 221 187 160 180 171 223 159 159 199 177 187 185 176 210 189 215 202 205 241 135 110 294 311 295 146 208 58 353 270 22 134 143 123 105 93 78
184 184 212 233 231 246 240 156 227 187 226 43 123 172 198 144 208 187 228 226 217 241 254 240 294 165 176 217 41 182 221 171 249 287 295 340 261 244 112 96 102 105 105 93 77
204 201 208 228 227 244 184 112 252 237 350 186 118 216 197 175 255 188 214 249 246 189 204 269 207 115 178 156 142 162 192 17 322 270 54 217 235 259 110 99 106 104 91 83 73
202 206 218 222 219 197 229 221 215 215 328 354 223 271 252 198 191 177 218 78 100 75 30 14 310 227 46 79 48 31 335 315 233 257 241 260 292 255 124 124 110 89 97 92 73
197 184 210 205 188 191 200 216 253 269 162 221 233 269 271 268 217 215 232 138 146 138 74 66 190 247 1 177 226 185 206 212 275 199 244 276 257 141 122 124 112 104 103 76 41
186 175 188 177 150 200 212 188 180 236 239 226 249 246 247 281 322 267 250 251 89 102 121 84 125 265 238 302 308 261 231 238 228 243 227 246 264 74 106 108 96 54 322 319 332
195 190 186 179 210 214 177 173 216 207 217 210 224 213 233 243 241 244 232 54 56 69 125 143 213 334 328 245 25 64 337 289 330 39 256 261 261 346 130 146 140 244 257 263 282
182 188 181 205 234 235 212 215 215 213 245 230 226 236 183 210 251 228 154 75 70 87 82 65 190 188 234 256 18 275 273 269 323 283 311 272 292 289 294 311 352 58 118 179 338
213 232 186 199 218 220 231 207 215 195 223 212 229 219 203 219 221 233 223 145 90 118 82 18 249 203 254 288 322 242 262 269 267 261 249 272 277 272 291 302 69 94 128 19 335
213 229 215 315 198 204 214 230 229 230 169 204 233 231 212 199 173 137 109 111 132 47 120 56 263 58 279 229 267 273 262 266 262 263 261 265 270 288 325 30 43 46 25 344 318
220 222 156 190 221 197 214 220 213 211 4 87 298 125 144 67 89 101 79 66 73 137 157 164 163 108 263 125 3 300 253 247 254 257 258 263 274 354 241 110 40 13 333 309 310